This is the latest recevied weather packets stored in our database for station/object DL5TW-13. If no packets are shown the sender has not sent any weather packets the latest 10 day(s).
| Time | Temp. | Humidity | Pressure | Rain* | Wind** | Luminosity | Snow |
|---|---|---|---|---|---|---|---|
| 1778099809 | 11.67° C | 85% | 1002.3 hPa | 1.02 mm | - | - | - |
| 1778099509 | 11.67° C | 85% | 1002.3 hPa | 1.02 mm | - | - | - |
| 1778099208 | 11.67° C | 85% | 1002.2 hPa | 0.51 mm | - | - | - |
| 1778098908 | 11.67° C | 85% | 1002.3 hPa | 0.51 mm | - | - | - |
| 1778098608 | 11.67° C | 84% | 1002.1 hPa | 0.51 mm | - | - | - |
| 1778098308 | 11.67° C | 84% | 1002.1 hPa | 0.51 mm | - | - | - |
| 1778098007 | 11.67° C | 84% | 1002 hPa | 0.51 mm | - | - | - |
| 1778097707 | 11.67° C | 83% | 1001.8 hPa | 0 mm | - | - | - |
| 1778097407 | 11.67° C | 82% | 1001.7 hPa | 0 mm | - | - | - |
| 1778097107 | 12.22° C | 82% | 1001.7 hPa | 13.97 mm | - | - | - |
| 1778096806 | 12.22° C | 82% | 1001.7 hPa | 13.97 mm | - | - | - |
| 1778096506 | 12.22° C | 82% | 1001.7 hPa | 146.05 mm | - | - | - |
| 1778096206 | 12.22° C | 82% | 1001.6 hPa | 146.05 mm | - | - | - |
| 1778095905 | 12.22° C | 82% | 1001.7 hPa | 150.62 mm | - | - | - |
| 1778095605 | 12.22° C | 83% | 1001.7 hPa | 150.62 mm | - | - | - |
| 1778095305 | 12.22° C | 82% | 1001.4 hPa | 150.62 mm | - | - | - |
| 1778095004 | 12.22° C | 82% | 1001.3 hPa | 150.62 mm | - | - | - |
| 1778094704 | 12.22° C | 82% | 1001.2 hPa | 150.62 mm | - | - | - |
| 1778094404 | 12.22° C | 83% | 1001.2 hPa | 150.62 mm | - | - | - |
| 1778094104 | 11.67° C | 82% | 1001.1 hPa | 150.62 mm | - | - | - |
| 1778093503 | 11.67° C | 83% | 1000.7 hPa | 136.65 mm | - | - | - |
| 1778093203 | 11.67° C | 83% | 1000.7 hPa | 4.57 mm | - | - | - |
| 1778092902 | 11.67° C | 82% | 1000.7 hPa | 4.57 mm | - | - | - |
| 1778092602 | 11.67° C | 82% | 1000.5 hPa | 0 mm | - | - | - |
| 1778092302 | 11.67° C | 82% | 1000.5 hPa | 0 mm | - | - | - |
* Rain latest hour (hover to see other rain measurements)
** Current wind speed in m/s (hover to see current wind gust speed)